Location: Newark
(50.0306°N, 2.3272°E)
Time: 07:06:58
(UTC+00:00)

Transit 2A Rocket - Pass Details

Date: 06 December 2019
Orbit: 593 x 910 km, 66.7° (Epoch: 18 January)

Event Time Altitude Azimuth Distance (km) Brightness Sun altitude
Rises 19:04:46 0° 255° (WSW) 2,918 9.1 -30.3°
Reaches altitude 10° 19:07:27 10° 269° (W) 1,979 8.0 -30.7°
Enters shadow 19:10:37 23° 314° (NW) 1,288 6.6 -31.2°
Maximum altitude 19:11:02 24° 324° (NW) 1,274 - -31.3°
Drops below altitude 10° 19:14:33 10° 18° (NNE) 1,938 - -31.8°
Sets 19:17:10 0° 33° (NNE) 2,844 - -32.2°
